Elko, NV

7:20 PM PDT on September 30, 2016 (GMT -0700)
Elko Regional

Weather History for KEKO - March, 2013

Change the Weather History Date:

Wednesday, March 6, 2013

  Actual Average Record
Temperature  
Mean Temperature 41 °F 36 °F  
Max Temperature 52 °F 49 °F 69 °F (1937)
Min Temperature 29 °F 24 °F -4 °F (1922)
Degree Days  
Heating Degree Days 24 29  
Month to date heating degree days 150 177  
Since 1 July heating degree days 5211 5345  
Cooling Degree Days 0 0  
Month to date cooling degree days 0 0  
Year to date cooling degree days 0 0  
Moisture  
Dew Point 23 °F    
Average Humidity 52    
Maximum Humidity 69    
Minimum Humidity 35    
Precipitation  
Precipitation T in 0.04 in 0.38 in (1989)
Month to date precipitation 0.04 0.20  
Year to date precipitation 1.29 2.16  
Snow  
Snow T in 0.20 in 2.70 in (1958)
Month to date snowfall T 1.1  
Since 1 July snowfall 38.3 33.6  
Snow Depth T in    
Sea Level Pressure  
Sea Level Pressure 29.78 in    
Wind  
Wind Speed 11 mph (WSW)    
Max Wind Speed 40 mph    
Max Gust Speed 49 mph    
Visibility 10 miles    
Events Rain    
T = Trace of Precipitation, MM = Missing Value Source: NWS Daily Summary

Daily Weather History Graph

Daily Weather History Graph

Search for Another Location

Airport or City:

Trip Planner

Search our weather history database for the weather conditions in past years. The results will help you decide how hot, cold, wet, or windy it might be!

Date:

Astronomy

Mar. 06, 2013 Rise Set
Actual Time 6:08 AM PST 5:40 PM PST
Civil Twilight 5:41 AM PST 6:07 PM PST
Nautical Twilight 5:09 AM PST 6:39 PM PST
Astronomical Twilight 4:37 AM PST 7:11 PM PST
Moon 2:23 AM PST (3/6) 12:25 PM PST (3/6)
Length of Visible Light 12h 26m
Length of Day
11h 31m
Waning Crescent, 29% of the Moon is Illuminated
Mar 6
Waning Crescent
Mar 11
New
Mar 19
First Quarter
Mar 27
Full
Apr 2
Last Quarter

Hourly Weather History & Observations

Time (PST) Temp. Windchill Dew Point Humidity Pressure Visibility Wind Dir Wind Speed Gust Speed Precip Events Conditions
12:56 AM 46.0 °F 39.0 °F 25.0 °F 44% 29.69 in 10.0 mi South 17.3 mph 29.9 mph N/A   Clear
1:56 AM 46.0 °F 40.6 °F 26.1 °F 46% 29.67 in 10.0 mi SSW 11.5 mph 20.7 mph N/A   Clear
2:56 AM 44.1 °F 39.0 °F 27.0 °F 51% 29.67 in 10.0 mi SW 9.2 mph - N/A   Partly Cloudy
3:56 AM 44.1 °F 41.5 °F 28.0 °F 53% 29.69 in 10.0 mi SSW 4.6 mph - N/A   Mostly Cloudy
4:56 AM 43.0 °F 38.2 °F 28.0 °F 56% 29.68 in 10.0 mi WSW 8.1 mph - N/A   Partly Cloudy
6:56 AM 42.1 °F - 27.0 °F 55% 29.72 in 10.0 mi Calm Calm - N/A   Clear
7:56 AM 46.9 °F - 28.0 °F 48% 29.71 in 10.0 mi South 11.5 mph 19.6 mph N/A   Clear
8:56 AM 50.0 °F - 28.0 °F 43% 29.69 in 10.0 mi South 15.0 mph 23.0 mph N/A   Clear
9:56 AM 50.0 °F - 26.1 °F 39% 29.69 in 10.0 mi SW 15.0 mph 21.9 mph N/A   Mostly Cloudy
10:56 AM 50.0 °F - 26.1 °F 39% 29.69 in 10.0 mi WSW 17.3 mph - N/A   Mostly Cloudy
11:56 AM 45.0 °F 37.1 °F 28.9 °F 53% 29.73 in 10.0 mi WSW 19.6 mph 34.5 mph 0.00 in Rain Light Rain
12:56 PM 51.1 °F - 24.1 °F 35% 29.69 in 10.0 mi West 20.7 mph 26.5 mph 0.00 in   Mostly Cloudy
1:56 PM 48.9 °F - 26.1 °F 41% 29.73 in 10.0 mi WNW 31.1 mph 38.0 mph N/A   Scattered Clouds
2:56 PM 42.1 °F 31.7 °F 28.0 °F 58% 29.81 in 10.0 mi West 27.6 mph 36.8 mph N/A   Overcast
3:56 PM 43.0 °F 36.4 °F 23.0 °F 45% 29.83 in 10.0 mi West 12.7 mph - N/A   Overcast
4:56 PM 42.1 °F 35.7 °F 19.0 °F 40% 29.84 in 10.0 mi West 11.5 mph - N/A   Overcast
5:56 PM 39.9 °F 37.8 °F 18.0 °F 41% 29.87 in 10.0 mi Variable 3.5 mph - N/A   Overcast
6:56 PM 37.9 °F 35.5 °F 14.0 °F 38% 29.91 in 10.0 mi Variable 3.5 mph - N/A   Clear
7:56 PM 37.0 °F 31.6 °F 12.0 °F 36% 29.91 in 10.0 mi Variable 6.9 mph - N/A   Clear
8:56 PM 34.0 °F 27.2 °F 17.1 °F 50% 29.92 in 10.0 mi West 8.1 mph - N/A   Clear
9:56 PM 30.9 °F 27.5 °F 17.1 °F 57% 29.93 in 10.0 mi WSW 3.5 mph - N/A   Clear
10:56 PM 28.9 °F - 19.0 °F 67% 29.94 in 10.0 mi Calm Calm - N/A   Clear
11:56 PM 30.0 °F - 19.9 °F 66% 29.96 in 10.0 mi Calm Calm - N/A   Clear